GFSMW_700_spd_057.txt.gz
Wind_Speed
7 5 3 3 5 6 8 17 27 27 29 25 21 29 26 34 32 33 36 37 38 37 34 31 28 28 23 19 18 17 17 17 19 20 18 17 12 11 13 14 15 16 19
9 9 5 3 4 8 12 11 27 28 25 26 22 28 24 39 39 37 36 39 37 38 37 36 32 28 27 23 22 22 17 18 20 20 18 17 15 14 15 16 18 20 20
10 9 9 3 1 7 12 7 15 27 22 20 29 31 32 41 42 42 40 40 41 44 44 39 38 35 31 26 23 23 19 20 21 21 21 20 18 16 17 18 16 21 21
9 8 9 6 2 3 8 9 5 16 29 16 20 27 29 26 35 37 47 47 49 50 51 48 50 39 31 32 27 24 21 23 23 24 23 22 20 21 21 21 21 17 21
10 7 9 10 6 2 4 7 9 8 14 19 24 25 29 26 35 33 48 38 49 50 52 52 33 37 36 28 33 28 24 26 27 29 29 28 26 30 24 25 23 22 23
13 11 9 11 9 6 5 5 5 8 7 9 13 17 28 28 32 29 29 42 39 32 44 48 29 34 35 31 31 30 30 29 31 32 33 33 32 32 26 26 27 26 28
17 15 8 4 7 7 6 6 6 6 6 5 6 8 16 27 32 38 26 34 38 34 34 31 28 28 34 36 35 35 34 33 35 36 35 38 40 33 29 25 32 30 28
16 19 12 9 7 6 7 8 8 8 8 7 6 5 8 10 17 25 25 34 28 31 24 35 34 33 38 40 42 39 37 39 41 40 40 40 35 27 25 32 30 31 30
14 20 17 14 11 7 4 7 9 10 10 10 9 8 8 11 13 15 17 18 21 21 24 26 29 31 33 35 37 40 42 45 43 44 45 33 27 26 34 34 29 33 35
16 17 20 19 17 15 13 12 10 13 14 15 15 13 13 13 14 16 17 17 19 21 22 25 29 31 34 37 40 42 42 44 47 49 45 38 34 33 37 31 31 34 34
15 14 18 18 18 19 20 20 19 16 17 21 20 20 18 17 18 18 19 20 22 24 26 29 32 35 37 39 42 43 44 43 39 34 36 35 34 33 35 35 37 35 35
11 13 12 13 16 14 17 21 20 20 18 19 21 21 20 23 23 25 24 27 28 28 31 33 35 36 38 38 41 46 44 43 43 38 37 35 35 35 37 39 37 38 38
10 11 14 15 18 14 12 13 15 19 23 25 25 24 22 25 27 27 27 26 33 33 37 37 39 40 42 46 46 48 52 53 45 44 46 41 33 37 40 38 39 41 41
12 14 15 16 17 16 13 13 10 12 21 23 28 28 26 26 27 28 29 28 37 34 33 41 41 43 47 47 47 45 49 43 46 47 51 33 38 38 42 40 43 44 43
24 23 22 19 20 19 18 16 17 17 17 18 21 23 23 22 23 26 27 27 30 38 36 37 47 39 44 42 41 38 38 35 43 48 42 37 43 37 37 43 45 37 50
21 20 25 25 21 22 20 17 19 22 22 19 16 15 17 16 16 18 22 27 29 32 37 44 45 41 35 34 41 36 34 34 34 36 34 42 34 41 44 42 44 48 44
29 29 26 28 30 26 28 28 25 23 25 25 21 21 23 21 21 22 23 26 30 31 33 33 38 45 41 32 32 39 38 34 40 42 41 40 41 43 43 47 49 45 50
24 27 23 28 30 33 33 29 29 24 25 30 28 25 24 23 25 27 25 26 30 32 32 32 34 35 36 34 35 36 39 39 41 43 44 43 40 46 48 41 50 54 55
23 25 21 21 20 26 28 28 29 27 26 28 32 32 29 29 28 31 34 32 32 33 34 35 36 36 36 36 36 37 40 40 40 40 41 44 45 42 45 52 55 52 46
28 29 31 22 22 22 22 29 32 33 30 29 31 34 34 31 37 37 37 37 36 37 37 36 36 36 37 38 39 39 41 40 38 44 45 47 38 48 50 53 47 46 49
38 38 34 37 31 29 26 28 31 34 33 36 35 36 37 36 36 37 39 39 37 37 37 38 39 39 40 41 43 43 39 39 39 43 41 45 46 49 47 45 47 50 52
18 23 28 33 34 34 37 34 36 36 40 39 37 35 35 35 35 38 41 40 40 40 40 40 39 37 39 35 36 39 41 40 43 42 44 46 46 45 46 48 51 51 53
16 16 17 22 27 32 35 33 35 36 37 32 30 31 30 33 40 40 38 39 39 39 37 35 31 30 36 35 39 41 39 42 41 43 45 44 46 46 48 50 53 52 48
17 15 16 20 18 19 22 22 21 20 21 23 26 28 30 38 42 37 36 35 33 27 26 28 28 34 36 37 37 38 39 40 43 44 44 46 48 51 53 53 51 50 51
11 14 17 15 21 18 17 20 22 24 26 27 30 32 39 38 35 33 31 26 25 29 33 35 35 35 33 37 39 41 41 42 43 44 47 47 48 48 47 45 45 47 45
18 19 21 21 30 27 24 21 19 21 25 25 25 29 27 26 25 24 22 22 28 31 33 34 33 34 37 38 38 38 39 39 40 41 40 40 41 41 43 45 44 43 44

GFSMW_700_spd_063.txt.gz
Wind_Speed
14 15 11 10 11 10 8 9 13 17 21 18 17 14 14 33 40 32 34 45 45 44 52 41 34 30 26 27 24 21 21 21 19 21 21 22 21 20 20 20 18 19 17
15 16 13 12 12 12 12 12 13 20 24 22 16 13 10 30 35 34 36 44 43 43 42 41 37 32 35 29 27 26 23 22 20 21 18 20 21 22 20 20 21 20 20
15 16 14 13 13 12 12 14 14 14 21 27 24 21 18 30 33 35 34 35 52 47 47 42 39 39 30 32 29 27 24 22 21 20 20 16 15 15 20 23 23 22 22
14 15 14 13 13 13 11 12 12 8 18 21 26 27 20 24 19 24 31 35 32 41 56 54 47 38 37 34 31 30 28 26 29 24 21 21 19 16 21 22 23 26 23
18 15 14 12 14 13 11 8 8 3 13 18 21 27 23 23 24 25 28 30 35 37 47 48 44 45 43 37 34 35 36 33 29 27 24 25 25 25 27 28 31 30 29
19 18 16 13 12 12 11 8 4 3 9 12 17 18 22 24 27 30 30 31 33 39 40 43 48 45 46 39 40 39 37 37 34 30 29 27 27 28 30 32 34 37 37
19 20 17 14 12 12 11 9 6 3 5 8 13 17 17 24 29 33 27 31 33 38 39 49 47 49 45 43 41 41 38 40 38 37 35 31 29 29 31 34 34 38 37
16 19 17 17 14 13 12 10 9 7 6 7 9 12 15 17 27 32 34 30 29 30 35 45 43 48 51 39 40 42 47 46 48 48 45 40 33 34 35 38 39 43 43
18 19 19 18 18 14 11 10 10 10 9 9 9 8 10 12 14 18 31 29 26 30 27 38 41 42 41 43 34 36 45 46 42 43 44 42 39 39 40 41 43 44 48
18 21 21 19 21 17 14 12 10 9 11 11 11 11 10 10 11 13 20 28 30 30 28 28 31 37 40 38 33 35 40 39 38 45 45 44 43 44 45 47 47 49 51
11 19 20 18 23 21 18 14 13 13 13 13 14 15 14 13 13 13 13 15 21 23 26 27 30 33 32 34 43 41 41 42 43 44 46 46 44 45 47 50 51 53 54
2 12 17 18 21 23 21 19 19 20 20 19 18 18 19 19 18 16 15 16 16 19 21 22 24 26 27 29 32 34 36 37 39 39 39 41 46 48 50 50 53 58 56
5 1 12 18 17 20 22 22 22 20 20 23 24 23 23 24 24 21 21 21 21 22 23 24 25 26 27 30 33 34 34 37 39 41 45 47 51 53 51 53 58 64 56
6 5 4 5 7 9 12 15 21 20 20 20 21 24 27 26 25 28 29 28 27 28 28 28 29 28 29 32 35 36 36 42 43 44 47 48 51 54 57 57 57 63 63
11 3 6 10 13 16 17 18 18 26 24 23 21 18 18 27 30 31 31 32 31 32 33 33 31 30 32 35 39 42 42 42 46 48 49 53 54 55 56 62 59 59 53
20 18 20 20 12 13 19 22 24 23 29 29 27 26 24 23 26 33 36 36 37 35 35 35 35 36 39 42 43 43 45 49 51 51 53 58 57 57 52 58 62 50 43
29 25 22 21 23 24 25 24 27 30 29 33 31 31 32 31 30 30 34 37 40 40 38 36 37 38 40 41 43 44 47 50 55 59 61 61 61 60 54 55 54 48 49
33 33 30 26 29 31 31 33 36 34 35 32 34 33 32 32 35 37 34 33 37 36 38 39 37 36 33 34 35 38 43 47 50 54 56 59 58 62 60 50 51 49 52
21 27 39 39 34 37 39 35 30 29 28 34 36 37 39 39 38 40 39 37 37 38 39 39 41 41 37 37 34 36 39 43 46 47 48 50 52 51 57 55 53 56 54
28 24 25 32 42 45 43 42 40 39 37 28 27 32 40 44 43 41 44 45 45 45 45 47 47 46 44 42 38 37 40 44 45 47 48 49 50 51 52 54 54 58 56
28 30 32 26 28 34 43 44 44 44 44 37 31 30 32 39 40 42 44 49 53 53 54 52 50 49 49 45 40 41 46 45 47 48 48 49 48 49 51 52 51 58 57
26 27 29 33 34 34 32 35 45 50 49 46 47 44 39 37 36 40 45 48 52 52 51 54 50 50 47 46 43 41 46 46 47 48 49 51 47 47 48 54 57 50 32
27 29 32 31 32 33 33 26 33 46 51 49 49 46 47 46 46 44 44 47 46 46 41 41 46 43 43 47 43 45 52 48 45 43 46 49 47 52 42 32 29 33 37
27 30 31 34 37 34 30 19 22 24 34 44 45 48 45 45 43 37 38 38 37 40 46 51 53 55 44 46 47 46 42 41 39 43 42 39 33 32 31 32 35 36 36
29 28 31 32 29 27 31 35 19 22 19 17 17 22 29 32 37 36 38 41 42 39 34 33 34 36 41 47 45 40 38 39 34 29 29 27 26 27 30 33 35 37 40
28 24 28 25 25 24 23 29 34 22 17 19 20 21 22 21 27 27 27 28 32 35 38 38 37 35 32 30 28 25 23 24 26 28 29 30 32 33 35 37 38 39 41

GFSMW_700_spd_069.txt.gz
Wind_Speed
24 24 26 12 11 10 9 11 12 10 10 13 15 16 16 16 19 22 35 34 37 36 29 34 43 38 38 34 31 29 28 28 26 23 23 22 21 19 18 18 17 19 19
25 25 27 15 11 10 10 9 12 13 14 14 16 19 18 17 16 23 33 37 36 36 32 35 44 48 39 40 38 33 33 31 25 24 22 23 21 20 20 20 19 19 20
27 25 22 16 12 11 9 8 10 14 17 14 13 17 16 16 18 27 31 32 31 35 39 32 40 37 43 39 35 34 32 32 25 24 19 20 20 16 21 22 22 23 24
24 21 21 19 10 11 9 6 9 12 14 13 8 15 12 12 13 22 29 34 36 31 35 29 42 43 49 49 30 29 30 31 32 33 27 26 21 22 23 23 24 26 26
26 26 25 21 14 11 8 6 6 9 10 8 6 13 15 13 10 12 21 32 28 26 32 35 44 49 47 41 37 36 37 36 39 35 27 27 26 25 27 23 24 29 24
30 26 24 21 17 10 9 6 4 5 7 5 1 5 15 14 12 15 18 20 23 27 28 29 43 53 49 46 44 36 35 40 40 35 31 31 29 28 28 30 29 28 26
32 27 25 22 19 10 9 6 4 3 3 3 1 1 3 12 15 13 15 13 18 18 22 22 27 41 47 45 39 41 44 44 42 38 36 39 36 37 33 33 37 39 32
24 26 20 18 21 12 10 6 4 3 2 1 2 0 2 4 7 11 18 17 22 16 24 22 28 33 39 47 44 45 44 45 47 41 38 38 38 34 35 33 33 33 34
19 18 16 16 13 11 10 7 5 3 2 1 0 1 1 2 3 6 10 13 16 22 23 21 28 29 37 43 44 48 48 47 46 40 40 38 40 35 32 33 34 38 43
11 18 17 13 8 10 11 11 7 4 4 2 1 1 2 2 3 5 7 8 11 19 26 21 26 26 31 34 44 51 50 50 51 42 41 41 41 36 34 37 39 42 47
11 10 15 18 9 8 11 14 10 7 6 5 4 4 5 5 4 4 6 7 8 12 21 26 25 28 30 32 35 40 45 44 43 36 42 42 39 42 41 41 42 45 48
9 11 11 11 11 14 12 15 15 13 10 11 11 10 10 10 9 8 8 9 8 9 11 16 21 26 26 27 33 36 39 42 42 42 44 41 37 40 43 43 45 45 44
12 18 19 17 10 12 11 11 18 17 16 15 15 16 16 15 14 13 14 14 14 14 14 15 16 20 22 24 25 30 33 34 34 35 36 33 38 40 37 37 41 42 43
10 12 14 16 20 17 9 5 4 8 14 17 19 19 19 19 19 19 19 19 19 21 20 19 20 21 22 25 26 27 28 30 31 32 32 32 36 36 37 41 42 42 45
5 8 7 6 12 16 17 15 13 12 11 11 11 11 17 18 19 21 22 22 24 25 26 27 28 28 28 28 28 29 31 32 31 32 35 37 37 39 39 43 44 45 46
14 13 7 9 5 8 13 15 14 17 19 19 19 16 15 16 20 23 25 25 24 27 30 30 32 34 34 33 32 34 35 37 38 39 39 40 41 42 45 46 47 48 51
10 12 26 20 16 19 15 14 16 21 24 24 26 27 28 22 21 23 27 30 31 31 30 31 34 36 37 37 38 39 40 41 42 42 43 45 44 43 44 45 46 47 48
8 8 9 15 24 17 21 26 26 26 25 27 29 31 32 35 32 29 29 30 34 37 36 35 37 38 37 40 43 43 46 47 46 47 47 48 47 46 45 47 49 53 52
13 14 15 15 17 19 20 21 24 27 28 27 29 33 37 36 35 35 36 34 35 37 39 39 40 41 41 43 43 44 49 52 52 53 54 53 53 52 51 54 58 56 51
14 16 16 17 18 19 20 20 20 21 25 30 31 30 34 40 41 41 41 40 38 38 37 41 44 46 47 47 51 48 47 50 53 56 58 58 58 56 55 53 51 52 52
18 18 18 21 22 22 21 22 22 23 23 26 28 33 34 33 43 46 44 42 42 44 41 40 39 39 43 48 50 49 46 44 47 50 53 54 56 55 55 56 55 56 58
19 21 23 24 25 25 26 27 29 31 31 30 27 29 32 36 34 40 48 47 43 44 45 46 45 43 42 43 45 45 44 45 47 51 54 56 59 58 60 64 60 55 49
22 23 24 23 24 26 28 30 30 28 28 27 29 29 29 32 32 33 40 44 46 44 47 49 48 51 49 49 50 50 45 46 46 51 59 63 62 66 60 52 57 50 46
23 25 26 26 27 29 30 29 28 29 34 35 34 34 33 29 29 30 31 34 42 39 44 50 55 53 59 54 57 54 48 53 58 59 64 51 49 45 40 35 23 18 19
22 23 24 24 25 26 28 30 31 33 32 29 27 29 29 26 22 18 21 22 24 30 37 43 49 44 42 42 48 56 32 14 24 16 22 16 12 11 12 12 14 17 18
22 24 25 24 23 23 25 27 27 26 25 25 26 26 25 22 21 23 25 22 16 22 25 18 17 21 20 10 13 11 10 11 13 9 12 12 14 15 15 18 20 23 25

GFSMW_700_spd_075.txt.gz
Wind_Speed
23 32 30 27 23 20 16 17 16 14 14 13 14 16 14 13 10 13 10 32 37 40 41 34 32 36 35 37 36 36 31 30 30 27 29 28 23 21 21 23 22 19 18
24 22 29 29 16 14 15 16 16 14 14 14 14 15 15 14 14 10 15 19 30 37 39 34 32 33 36 37 37 36 33 32 31 31 29 28 28 26 24 25 23 21 22
22 23 23 23 17 13 11 14 15 13 13 14 15 14 15 18 19 18 19 19 23 20 33 37 35 35 36 36 36 35 33 33 33 34 33 33 32 28 27 24 24 26 26
25 25 23 19 15 16 12 11 13 12 10 11 14 11 11 16 15 16 19 20 26 35 30 39 40 42 39 40 38 37 34 34 36 35 35 31 32 30 27 28 30 31 32
28 24 25 24 16 15 13 10 11 11 8 8 10 9 10 16 15 15 19 19 30 29 32 37 36 36 31 39 41 39 44 39 38 38 34 37 35 28 32 30 32 37 36
19 30 26 29 22 19 16 10 10 9 7 6 4 7 8 11 11 8 10 16 25 38 37 32 37 35 36 29 42 46 46 43 40 37 37 35 35 33 33 31 28 40 20
20 22 30 29 25 24 17 11 10 8 6 4 1 3 9 9 12 10 8 9 27 39 40 32 35 30 32 38 38 42 45 40 43 43 40 32 31 31 32 35 38 30 27
24 28 32 28 27 24 14 12 10 8 6 3 1 3 5 10 11 11 9 8 14 23 28 31 28 32 30 34 28 40 42 46 41 41 38 32 39 34 36 37 44 36 36
23 26 29 28 26 22 12 12 12 9 6 5 3 5 5 5 7 9 10 12 10 16 24 25 19 18 19 25 26 37 42 43 44 45 42 42 37 40 42 42 42 43 42
20 23 22 24 23 15 13 14 14 12 10 8 6 5 5 4 4 4 5 7 11 17 17 17 15 15 22 22 27 29 35 41 39 40 39 39 37 43 45 46 47 43 45
18 21 24 27 20 18 16 14 13 14 10 9 8 6 4 3 2 2 3 5 8 13 23 22 23 22 22 25 25 28 32 33 34 39 41 40 43 46 51 51 49 51 45
22 26 29 31 23 22 17 15 12 16 16 16 14 12 10 8 5 5 5 6 7 8 11 20 24 26 29 26 29 31 28 28 32 40 46 48 50 54 55 49 51 52 50
27 29 33 30 29 27 22 20 16 15 19 19 17 15 14 13 12 11 10 10 11 12 12 13 16 24 26 32 33 31 37 38 39 35 36 42 48 50 50 51 50 54 54
28 32 30 30 31 29 26 23 19 18 20 21 20 18 18 17 17 17 16 15 15 15 16 17 19 19 21 25 29 32 32 33 35 40 41 43 44 42 44 44 46 47 52
17 25 30 33 31 29 26 20 16 11 12 15 15 14 16 16 16 17 19 21 21 20 21 21 22 23 25 25 27 29 32 34 37 38 37 39 40 41 40 44 44 46 49
16 14 13 13 11 13 19 22 23 15 11 13 14 13 15 16 15 14 15 16 18 21 21 24 26 28 29 30 31 33 35 36 38 39 40 40 41 40 41 44 45 46 49
10 8 11 12 7 6 7 8 12 16 19 31 32 29 25 25 24 21 21 23 24 24 22 23 25 26 28 31 35 37 40 41 42 43 44 46 46 46 47 48 50 51 53
13 10 8 5 3 8 7 6 8 10 13 18 21 24 26 27 31 31 31 30 29 30 32 32 31 31 28 33 34 33 36 42 45 48 50 53 52 52 52 52 54 55 56
10 9 7 4 6 6 7 9 10 13 15 18 20 22 25 28 31 34 35 34 34 36 35 37 40 41 44 42 40 41 43 38 39 44 43 50 56 57 57 58 59 58 62
5 5 3 1 3 4 7 9 11 15 17 20 21 22 24 26 29 31 33 35 36 38 41 43 44 45 45 46 47 45 45 41 50 46 47 49 54 49 53 52 51 59 57
3 1 2 5 7 9 11 13 14 14 15 17 18 20 22 24 24 24 25 27 31 36 40 42 44 46 49 52 51 48 45 47 48 50 56 58 63 53 60 63 59 66 63
4 6 8 9 12 13 13 13 14 15 17 18 18 18 19 21 23 23 24 25 26 28 31 34 38 43 45 47 46 47 47 51 52 56 57 66 59 61 65 64 57 66 64
10 13 15 15 14 14 14 14 14 15 16 17 18 20 21 22 22 22 23 23 24 24 25 28 31 33 34 37 43 46 50 49 51 57 54 72 55 63 57 56 57 47 43
12 14 15 15 14 14 14 14 15 16 15 15 15 16 18 19 20 20 20 20 21 21 22 24 25 28 29 32 35 37 40 45 41 38 32 35 40 35 27 30 29 20 21
15 16 15 14 14 14 14 14 15 15 15 16 17 17 18 19 19 19 18 18 19 18 19 19 19 20 22 24 26 26 23 21 20 18 17 16 14 14 14 13 13 14 15
14 13 14 14 14 13 13 13 15 16 17 18 18 19 20 20 20 20 20 19 19 18 18 18 18 19 20 20 20 21 21 19 18 19 19 18 18 18 19 19 20 21 22

GFSMW_700_spd_078.txt.gz
Wind_Speed
27 26 24 24 25 25 21 17 18 17 19 17 18 17 18 17 19 16 14 17 24 31 43 35 43 39 38 36 35 34 34 33 32 28 29 28 25 24 23 24 23 22 21
33 31 27 24 25 25 20 16 16 16 17 16 16 18 19 19 18 11 11 6 22 23 34 36 42 38 37 37 38 36 36 34 32 31 28 27 27 25 24 23 25 25 23
28 28 25 17 21 21 17 14 14 15 15 16 15 16 17 18 16 12 6 4 18 18 26 44 38 36 35 38 38 36 36 35 33 32 29 30 29 24 25 24 24 26 26
27 28 21 19 18 18 17 15 13 13 13 14 15 15 13 12 13 11 5 6 9 25 18 37 36 38 38 38 36 36 35 33 32 32 31 30 28 26 28 26 26 25 25
28 25 20 18 18 15 17 15 12 10 10 12 14 11 7 9 14 13 13 13 15 17 23 21 38 38 37 35 35 35 34 32 33 32 30 30 32 33 30 25 25 28 26
16 26 27 25 23 18 18 17 13 10 8 9 11 9 5 7 12 12 12 15 19 22 22 27 26 28 37 41 37 36 35 35 39 35 34 31 31 31 29 29 34 31 33
17 18 22 31 24 24 22 18 12 9 8 7 8 6 5 8 10 9 8 8 11 21 26 27 31 34 32 30 33 40 46 43 40 44 37 34 34 31 27 29 30 31 34
20 22 19 24 28 26 23 21 14 11 8 7 5 4 2 7 7 9 7 8 7 18 21 29 28 30 29 28 25 27 31 37 39 43 44 45 36 40 39 33 31 33 39
22 28 25 24 26 26 23 21 13 12 9 7 5 4 3 4 5 6 6 7 6 11 22 23 26 29 28 33 28 32 32 29 41 40 37 43 43 41 39 41 35 35 41
21 28 29 28 31 28 26 23 17 15 13 11 9 8 8 7 6 5 5 6 8 7 18 22 20 20 21 19 20 27 23 31 36 37 40 37 47 45 42 42 45 43 39
23 24 29 28 31 29 26 25 21 18 16 13 13 11 10 10 8 7 6 5 6 8 11 16 18 16 16 18 22 23 25 29 31 31 37 42 43 35 38 42 42 42 41
25 23 27 27 27 28 27 26 23 20 18 17 17 14 12 11 9 8 7 6 5 5 8 15 18 21 20 20 23 24 26 25 27 28 30 30 31 36 36 37 40 43 45
21 25 23 25 32 33 30 28 28 24 23 21 19 17 15 13 10 8 8 8 8 8 8 10 14 20 19 25 24 27 26 29 32 33 30 30 29 36 37 41 42 48 52
17 19 24 27 34 34 30 31 28 23 20 21 20 19 18 16 14 13 12 12 13 12 12 13 14 16 19 21 25 28 27 35 35 30 34 37 39 42 36 38 50 51 53
12 17 20 27 35 33 33 29 27 23 16 18 17 15 16 14 13 14 15 17 18 18 19 19 18 19 21 22 23 26 28 31 33 36 37 37 36 35 37 46 45 48 50
11 11 14 20 25 24 28 24 18 16 17 12 11 9 9 10 10 14 13 13 13 13 14 16 20 23 25 26 26 27 29 31 32 33 35 37 40 42 44 46 47 50 55
20 21 22 18 17 13 12 16 19 21 23 19 16 18 23 20 17 18 18 17 19 19 21 22 22 21 25 25 26 29 32 34 35 35 37 40 42 43 45 47 49 51 53
17 15 16 17 13 13 11 7 8 14 18 16 13 16 23 26 29 29 31 31 29 29 27 28 28 30 37 36 37 33 33 32 30 31 34 36 39 41 45 49 50 50 52
20 16 17 13 8 8 8 8 11 14 15 16 16 18 20 22 24 27 26 27 29 32 34 35 35 36 39 41 43 44 43 42 41 45 49 51 53 56 50 52 47 50 52
16 16 16 15 9 5 4 5 7 9 11 13 15 18 19 21 23 24 26 27 28 29 30 32 34 37 40 43 44 43 42 42 42 43 44 48 54 55 55 56 55 56 57
15 10 8 4 1 2 6 7 9 10 11 13 14 17 18 20 22 23 24 24 25 26 26 28 29 30 32 36 39 42 43 44 43 45 47 51 54 59 60 58 60 59 66
7 3 2 2 5 7 9 11 12 12 12 13 14 15 16 17 18 19 20 22 22 23 24 24 25 27 29 31 33 36 39 38 38 42 45 48 52 60 64 63 57 53 51
6 4 5 7 8 9 10 10 10 10 11 11 12 13 13 14 15 16 17 18 19 20 21 22 23 25 27 28 29 30 30 31 33 39 43 44 45 45 48 50 47 48 37
3 6 8 9 10 9 9 9 9 9 10 10 11 11 12 14 15 16 17 17 19 20 20 21 22 23 24 26 28 28 29 28 26 25 26 27 29 29 27 25 24 22 20
7 8 8 9 10 10 11 11 11 11 10 10 10 10 11 13 14 15 15 16 17 17 18 19 20 21 22 23 25 25 25 25 25 24 24 24 24 24 24 24 24 23 23
9 8 7 8 10 11 10 9 11 12 12 12 12 12 13 14 15 15 16 16 17 18 18 19 19 20 21 21 22 23 23 23 24 24 23 24 24 25 26 27 28 27 27

GFSMW_700_spd_084.txt.gz
Wind_Speed
26 30 36 33 35 34 32 31 27 25 23 17 15 17 16 16 16 16 18 22 26 28 29 31 34 35 39 33 29 37 36 35 34 32 33 29 27 24 22 23 19 20 21
25 27 36 36 36 35 33 31 28 25 22 20 17 18 17 17 17 18 20 23 25 29 32 36 40 37 44 34 34 39 34 36 35 34 31 30 29 27 22 22 18 23 24
25 26 30 39 38 35 34 31 29 24 21 20 19 19 19 17 16 18 20 21 24 26 30 30 37 33 44 40 34 39 38 38 37 36 34 34 31 26 24 22 24 24 24
26 24 31 40 40 37 35 32 29 25 21 19 19 21 18 15 16 14 15 15 17 22 27 35 30 41 43 39 38 41 40 39 39 38 35 31 25 27 25 23 23 22 20
22 23 26 38 41 41 36 31 29 26 21 21 19 19 15 15 13 12 15 13 10 6 16 20 30 35 35 43 37 43 43 37 33 33 34 29 31 27 22 24 26 24 20
23 22 27 35 41 44 41 34 30 26 22 20 18 16 12 13 10 11 14 15 12 5 4 10 21 29 27 37 38 45 39 35 39 33 32 31 30 28 28 25 26 24 22
19 19 26 31 35 39 37 32 28 25 23 20 18 14 12 11 11 11 11 10 9 11 7 4 7 24 26 37 39 38 41 34 35 33 33 31 31 32 33 31 30 32 32
16 16 18 27 31 33 31 32 29 26 24 21 18 14 11 10 10 11 11 10 10 10 11 11 8 14 31 42 39 41 40 34 37 37 35 35 37 38 38 44 47 43 39
17 17 13 25 31 32 29 29 28 26 23 21 17 13 11 9 10 10 10 10 10 11 15 19 17 13 20 18 38 38 35 34 39 39 42 41 40 38 41 42 38 39 40
16 19 15 21 30 31 27 31 31 28 25 20 17 14 11 9 10 9 9 8 8 9 11 18 16 13 21 26 17 20 16 16 13 20 30 31 36 40 40 40 43 43 41
16 18 19 23 29 32 31 30 35 32 28 24 18 16 12 11 11 12 9 6 5 6 5 15 18 13 19 26 19 20 25 20 15 16 15 18 23 28 35 40 45 38 37
14 18 18 21 29 25 29 30 36 33 30 24 19 17 15 13 13 13 12 9 6 3 2 5 9 12 15 18 16 16 25 20 18 18 20 22 20 21 28 35 38 38 37
8 15 20 25 34 33 36 31 36 35 32 28 21 20 18 16 15 13 11 10 8 6 5 4 4 4 9 12 14 17 17 23 23 17 20 22 23 23 25 23 33 32 32
8 11 19 27 31 31 35 32 36 36 36 29 23 23 22 20 17 14 12 12 11 10 9 9 10 11 10 11 14 15 13 14 19 21 23 27 26 29 31 29 32 34 40
14 13 13 15 18 24 27 33 38 42 41 32 24 24 24 23 20 18 17 15 13 12 13 14 15 15 17 16 15 17 18 19 20 25 27 25 26 26 30 34 34 36 38
17 20 16 18 19 22 27 32 38 39 35 28 23 24 25 24 22 20 16 13 11 10 10 12 15 15 15 16 18 20 22 24 25 26 27 30 32 32 32 34 35 39 42
18 22 19 23 21 22 28 29 32 33 29 25 25 25 24 23 21 20 16 15 13 13 12 12 13 13 13 14 15 16 18 20 20 21 21 23 25 26 27 29 32 34 37
11 19 25 26 27 26 24 28 30 30 28 28 26 26 27 26 20 17 18 17 15 15 17 17 18 20 22 20 20 21 25 27 29 31 32 33 34 36 36 37 37 40 43
9 8 17 26 30 32 34 30 32 31 30 32 34 33 33 30 28 33 25 22 20 21 23 26 26 27 27 27 29 30 30 31 34 37 38 41 41 40 39 41 44 48 50
13 13 5 13 20 23 27 30 22 21 20 24 24 20 29 28 24 24 25 25 24 24 24 24 25 26 27 26 27 27 29 31 35 37 37 37 38 40 42 43 46 48 48
11 11 9 9 9 16 16 18 14 9 5 2 2 2 7 8 12 15 17 20 21 22 21 22 23 24 24 24 24 24 26 27 28 29 30 31 31 31 32 33 34 36 40
17 14 12 10 10 9 11 10 7 6 6 6 7 9 10 11 14 14 15 17 18 18 19 19 20 21 21 21 21 21 22 23 25 26 27 28 28 28 28 28 28 28 29
14 11 4 4 4 3 4 5 4 5 7 9 10 12 13 14 14 15 15 16 17 17 17 17 17 18 19 19 20 21 21 22 23 25 26 28 29 30 30 31 31 30 30
8 6 3 1 2 1 1 3 4 6 9 11 10 12 12 11 12 13 13 14 15 14 14 15 16 17 18 20 21 22 22 23 24 25 26 28 29 30 30 31 31 31 30
3 1 3 4 4 4 4 4 4 5 5 6 7 7 8 10 11 13 13 14 14 15 16 18 19 21 22 24 24 25 25 25 26 26 27 27 28 29 29 30 30 31 31
1 3 1 2 3 4 5 5 6 6 7 7 7 9 10 12 13 14 15 16 17 18 19 20 20 21 22 22 22 23 23 24 24 25 26 27 28 30 31 32 33 34 35